TimeCDT,TemperatureF,Dew PointF,Humidity,Sea Level PressureIn,VisibilityMPH,Wind Direction,Wind SpeedMPH,Gust SpeedMPH,PrecipitationIn,Events,Conditions,WindDirDegrees,DateUTC
12:15 AM,68.0,60.8,78,29.93,10.0,SW,4.6,-,N/A,,Overcast,220,2012-10-15 05:15:00
12:35 AM,68.0,60.8,78,29.92,10.0,SSW,3.5,-,N/A,,Mostly Cloudy,210,2012-10-15 05:35:00
12:55 AM,66.2,62.6,88,29.94,5.0,SW,10.4,-,0.04,Thunderstorm,Overcast,230,2012-10-15 05:55:00
1:15 AM,66.2,62.6,88,29.94,10.0,SW,5.8,-,N/A,,Overcast,220,2012-10-15 06:15:00
1:35 AM,66.2,62.6,88,29.95,10.0,SSW,5.8,-,N/A,Rain,Light Rain,210,2012-10-15 06:35:00
1:55 AM,66.2,62.6,88,29.95,5.0,WSW,3.5,-,0.03,Rain,Heavy Rain,250,2012-10-15 06:55:00
2:15 AM,66.2,62.6,88,29.95,7.0,Calm,Calm,-,N/A,,Overcast,0,2012-10-15 07:15:00
2:35 AM,66.2,62.6,88,29.94,7.0,Calm,Calm,-,N/A,Rain,Rain,0,2012-10-15 07:35:00
2:55 AM,64.4,62.6,94,29.94,4.0,Calm,Calm,-,N/A,,Light Drizzle,0,2012-10-15 07:55:00
3:15 AM,64.4,62.6,94,29.94,4.0,Calm,Calm,-,N/A,,Overcast,0,2012-10-15 08:15:00
3:35 AM,64.4,60.8,88,29.93,10.0,Calm,Calm,-,N/A,Rain,Rain,0,2012-10-15 08:35:00
3:55 AM,64.4,60.8,88,29.93,10.0,Calm,Calm,-,0.01,,Overcast,0,2012-10-15 08:55:00
4:15 AM,64.4,59.0,83,29.93,10.0,Calm,Calm,-,N/A,,Mostly Cloudy,0,2012-10-15 09:15:00
4:55 AM,60.8,57.2,88,29.94,0.2,Calm,Calm,-,N/A,Fog,Fog,0,2012-10-15 09:55:00
5:15 AM,60.8,57.2,88,29.95,1.8,Calm,Calm,-,N/A,,Scattered Clouds,0,2012-10-15 10:15:00
5:35 AM,60.8,57.2,88,29.95,7.0,Calm,Calm,-,N/A,,Mostly Cloudy,0,2012-10-15 10:35:00
5:55 AM,60.8,59.0,94,29.96,5.0,Calm,Calm,-,N/A,,Overcast,0,2012-10-15 10:55:00
6:15 AM,60.8,57.2,88,29.96,2.5,Calm,Calm,-,N/A,,Overcast,0,2012-10-15 11:15:00
6:35 AM,60.8,57.2,88,29.96,2.5,Calm,Calm,-,N/A,,Overcast,0,2012-10-15 11:35:00
6:55 AM,59.0,55.4,88,29.96,0.8,Calm,Calm,-,N/A,,Overcast,0,2012-10-15 11:55:00
7:15 AM,59.0,55.4,88,29.96,0.2,Calm,Calm,-,N/A,Fog,Fog,0,2012-10-15 12:15:00
7:35 AM,59.0,55.4,88,29.97,0.2,Calm,Calm,-,N/A,Fog,Fog,0,2012-10-15 12:35:00
7:55 AM,59.0,57.2,94,29.97,0.2,Calm,Calm,-,N/A,Fog,Fog,0,2012-10-15 12:55:00
8:15 AM,60.8,59.0,94,29.98,0.2,Calm,Calm,-,N/A,Fog,Fog,0,2012-10-15 13:15:00
8:35 AM,60.8,59.0,94,30.00,4.0,Calm,Calm,-,N/A,,Overcast,0,2012-10-15 13:35:00
8:55 AM,62.6,60.8,94,30.00,10.0,Calm,Calm,-,N/A,,Scattered Clouds,0,2012-10-15 13:55:00
9:15 AM,64.4,57.2,77,30.00,10.0,NE,3.5,-,N/A,,Scattered Clouds,40,2012-10-15 14:15:00
9:35 AM,66.2,53.6,64,30.00,10.0,NE,4.6,-,N/A,,Scattered Clouds,40,2012-10-15 14:35:00
9:55 AM,66.2,53.6,64,30.00,10.0,Calm,Calm,-,N/A,,Scattered Clouds,0,2012-10-15 14:55:00
10:15 AM,66.2,53.6,64,29.99,10.0,North,3.5,-,N/A,,Scattered Clouds,10,2012-10-15 15:15:00
10:35 AM,68.0,51.8,56,29.99,10.0,North,8.1,-,N/A,,Scattered Clouds,360,2012-10-15 15:35:00
10:55 AM,68.0,53.6,60,29.99,10.0,NW,6.9,-,N/A,,Scattered Clouds,320,2012-10-15 15:55:00
11:15 AM,69.8,51.8,53,30.00,10.0,West,9.2,-,N/A,,Scattered Clouds,270,2012-10-15 16:15:00
11:35 AM,69.8,50.0,49,30.00,10.0,NNW,8.1,-,N/A,,Clear,330,2012-10-15 16:35:00
11:55 AM,69.8,48.2,46,29.99,10.0,NW,8.1,16.1,N/A,,Scattered Clouds,310,2012-10-15 16:55:00
12:15 PM,69.8,48.2,46,29.98,10.0,NW,9.2,-,N/A,,Scattered Clouds,310,2012-10-15 17:15:00
12:35 PM,71.6,48.2,43,29.98,10.0,WNW,6.9,17.3,N/A,,Clear,300,2012-10-15 17:35:00
12:55 PM,71.6,46.4,41,29.97,10.0,WNW,11.5,17.3,N/A,,Clear,290,2012-10-15 17:55:00
1:15 PM,71.6,44.6,38,29.96,10.0,NW,8.1,-,N/A,,Clear,320,2012-10-15 18:15:00
1:35 PM,71.6,46.4,41,29.95,10.0,NW,8.1,-,N/A,,Clear,310,2012-10-15 18:35:00
1:55 PM,71.6,44.6,38,29.95,10.0,West,11.5,17.3,N/A,,Scattered Clouds,280,2012-10-15 18:55:00
2:15 PM,73.4,42.8,33,29.95,10.0,NW,8.1,-,N/A,,Scattered Clouds,320,2012-10-15 19:15:00
2:35 PM,71.6,41.0,33,29.94,10.0,NNW,15.0,20.7,N/A,,Clear,330,2012-10-15 19:35:00
2:55 PM,71.6,35.6,27,29.94,10.0,NNW,12.7,18.4,N/A,,Clear,340,2012-10-15 19:55:00
3:15 PM,71.6,35.6,27,29.94,10.0,NW,10.4,18.4,N/A,,Clear,320,2012-10-15 20:15:00
3:35 PM,71.6,37.4,29,29.94,10.0,NNW,8.1,-,N/A,,Clear,340,2012-10-15 20:35:00
3:55 PM,71.6,39.2,31,29.94,10.0,North,8.1,16.1,N/A,,Clear,350,2012-10-15 20:55:00
4:15 PM,71.6,39.2,31,29.95,10.0,North,10.4,-,N/A,,Clear,360,2012-10-15 21:15:00
4:35 PM,69.8,37.4,31,29.95,10.0,North,6.9,-,N/A,,Clear,360,2012-10-15 21:35:00
4:55 PM,69.8,37.4,31,29.95,10.0,NW,9.2,-,N/A,,Clear,320,2012-10-15 21:55:00
5:15 PM,69.8,37.4,31,29.95,10.0,Calm,Calm,-,N/A,,Clear,0,2012-10-15 22:15:00
5:35 PM,68.0,37.4,33,29.96,10.0,Calm,Calm,-,N/A,,Clear,0,2012-10-15 22:35:00
5:55 PM,64.4,37.4,37,29.96,10.0,Calm,Calm,-,N/A,,Clear,0,2012-10-15 22:55:00
6:15 PM,64.4,39.2,40,29.95,10.0,Calm,Calm,-,N/A,,Clear,0,2012-10-15 23:15:00
6:35 PM,59.0,44.6,59,29.96,7.0,Calm,Calm,-,N/A,,Clear,0,2012-10-15 23:35:00
6:55 PM,55.4,46.4,72,29.96,10.0,Calm,Calm,-,N/A,,Clear,0,2012-10-15 23:55:00
7:15 PM,53.6,46.4,77,29.96,10.0,Calm,Calm,-,N/A,,Clear,0,2012-10-16 00:15:00
7:35 PM,53.6,46.4,77,29.96,10.0,Calm,Calm,-,N/A,,Clear,0,2012-10-16 00:35:00
7:55 PM,51.8,46.4,82,29.97,10.0,Calm,Calm,-,N/A,,Clear,0,2012-10-16 00:55:00
8:15 PM,51.8,46.4,82,29.97,10.0,Calm,Calm,-,N/A,,Clear,0,2012-10-16 01:15:00
8:35 PM,51.8,46.4,82,29.97,10.0,Calm,Calm,-,N/A,,Clear,0,2012-10-16 01:35:00
8:55 PM,50.0,46.4,87,29.97,10.0,Calm,Calm,-,N/A,,Clear,0,2012-10-16 01:55:00
9:15 PM,50.0,46.4,87,29.97,10.0,Calm,Calm,-,N/A,,Clear,0,2012-10-16 02:15:00
9:35 PM,50.0,44.6,82,29.97,10.0,Calm,Calm,-,N/A,,Clear,0,2012-10-16 02:35:00
9:55 PM,48.2,44.6,87,29.98,10.0,Calm,Calm,-,N/A,,Clear,0,2012-10-16 02:55:00
10:15 PM,46.4,44.6,93,29.99,10.0,Calm,Calm,-,N/A,,Clear,0,2012-10-16 03:15:00
10:35 PM,46.4,44.6,93,29.99,10.0,Calm,Calm,-,N/A,,Clear,0,2012-10-16 03:35:00
10:55 PM,46.4,44.6,93,29.99,10.0,Calm,Calm,-,N/A,,Clear,0,2012-10-16 03:55:00
11:15 PM,46.4,44.6,93,29.99,10.0,Calm,Calm,-,N/A,,Clear,0,2012-10-16 04:15:00
11:35 PM,44.6,42.8,93,29.99,10.0,Calm,Calm,-,N/A,,Clear,0,2012-10-16 04:35:00
11:55 PM,44.6,42.8,93,29.99,10.0,Calm,Calm,-,N/A,,Clear,0,2012-10-16 04:55:00